{"data":{"norad_id":63562,"epoch":"2026-09-20T07:55:12.734400Z","epoch_age_seconds":170360,"freshness":"FRESH","line1":"1 63562U 25075Q   26263.33000850  .00008908  00000+0  33281-3 0  9993","line2":"2 63562  42.9978 251.5063 0001240 272.8094  87.2615 15.27583031 81704","mean_motion":15.27583031,"eccentricity":0.000124,"inclination_deg":42.9978,"raan_deg":251.5063,"arg_perigee_deg":272.8094,"mean_anomaly_deg":87.2615,"bstar":0.00033281,"rev_number":8170,"period_min":94.266561671436,"perigee_km":482.18923419976,"apogee_km":483.89080610076,"semimajor_km":6861.1770201503,"source":"CELESTRAK","updated_at":"2026-09-21T09:00:35.021932Z"}}